Location: Newark
(14.6561°N, 91.2669°W)
Time: 01:27:58
(UTC+00:00)

OTV 5 (USA 277) - Visible Passes

Search period start: 20 September 2019 00:00
Search period end: 30 September 2019 00:00
Orbit: 295 x 339 km, 54.5° (Epoch: 08 September)

Date Brightness Start Highest point End Pass type
(mag) Time Alt. Az. Time Alt. Az. Time Alt. Az.
21 Sep ? 00:21:01 10° NW 00:23:32 62° SW 00:26:02 10° SSE visible
22 Sep ? 00:36:55 10° W 00:37:57 12° WSW 00:38:59 10° SW visible
25 Sep ? 11:12:18 10° SSE 11:14:02 15° ESE 11:15:44 10° E visible
26 Sep ? 11:25:38 10° SSW 11:28:28 70° ESE 11:31:16 10° NE visible
28 Sep ? 10:23:36 29° ESE 10:23:36 29° ESE 10:25:51 10° ENE visible
29 Sep ? 10:39:01 26° N 10:39:01 26° N 10:40:32 10° NNE visible
